{"data":{"norad_id":53850,"epoch":"2026-09-20T22:00:03.000096Z","epoch_age_seconds":48026,"freshness":"FRESH","line1":"1 53850U 22114AJ  26263.91670139  .00028618  00000+0  16348-2 0  9994","line2":"2 53850  53.1600 136.6385 0001018 113.2255 118.8006 15.12513907  5800","mean_motion":15.12513907,"eccentricity":0.0001018,"inclination_deg":53.16,"raan_deg":136.6385,"arg_perigee_deg":113.2255,"mean_anomaly_deg":118.8006,"bstar":0.0016348,"rev_number":580,"period_min":95.205736181043,"perigee_km":527.8333625932,"apogee_km":529.23956131005,"semimajor_km":6906.6734619516,"source":"CELESTRAK","updated_at":"2026-09-21T09:00:33.022999Z"}}